Showing default

NUSAT-38 (MARIA AGNESI), 56202

Orbit data source: Space-Track

NUSAT-38 (MARIA AGNESI), 56202 is a payload satellite owned by URUGUS S.A. (AR) in SSO that was launched on Sat, 15 Apr 2023 UTC via an FALCON 9 launch vehicle from the Air Force Western Test Range (AFWTR). Payload-class satellites include a variety of spacecraft equipped with specific instruments for various scientific and technological missions. These include communications satellites like Starlink; space stations such as the ISS; scientific satellites like the Hubble; Earth observation satellites from companies like Planet Labs, Umbra, and HawkEye 360; GPS; miniature CubeSats for education and research; and military/defense satellites.

Loading next visibility...
Identifier
56202, 2023-054AA
Orbit
SSO
Country
Flag of UnknownUnknown / ARGN
Related business
Manufacturer
URUGUS S.A.
Mission
Operational Commercial Imaging
Bus & Motor
NEWSAT V, Unknown motor
Mass
41.5 kg wet, 38.5 kg dry
Launch date (UTC)
2023-04-15 (2 years ago)
Launch vehicle
FALCON 9
Launch site
Air Force Western Test Range (AFWTR)
Object type
Payload
Rocket body
Debris
Shape & HBR
Box, 0.4 m
Radar Cross Section
0.542 m², Medium (>0.1 m² and < 1m²)

Expand to show TLE details & history
Last TLE update: 18 hours ago

TLE from 18 hours ago
0 NUSAT-38 (MARIA AGNESI)
1 56202U 23054AA  25241.30472042  .00030254  00000-0  74838-3 0  9992
2 56202  97.3208 145.5262 0015610  54.5441 305.7260 15.40277207133507
Epoch: 2025-08-29T07:18Z
TLE epoch observation values (Epoch: 2025-08-29T07:18:47.844Z)
Latitude
0.00001°
Longitude
58.07156°
Altitude
442.201 km
Speed
7.65 km/s
True Right ascension
09h 42m 06s
True Declination
0° 00' 00"
Sunlit
Object was in daylight at epoch
Visualization orbit readout
Latitude
Unknown
Longitude
Unknown
Altitude
Unknown
Speed
Unknown
Apparent Right ascension
Unknown
Apparent Declination
Unknown
Sunlit
N/A
Visualization observer readout
Local Sidereal Time
17:00:34
Azimuth
Unknown
Elevation
Unknown
Doppler factor
Unknown
Orbital elements
Apogee altitude
452.872 km
Perigee altitude
431.579 km
Semi-major axis
6,820.363 km
Eccentricity
0.00156
Inclination
97.3208°
RAAN
145.5262°
Arg. of periapsis
54.5441°
True anomaly
305.58062°
Mean anomaly
305.726°
Eccentric anomaly
305.65333°
Mean motion
3.85329 °/min
Orbital period
93.43 mins
BSTAR
0.00074838
Loading maneuver chart data...
Computing Atmospheric mass density...
Loading historical data...
Loading historical data...
Loading historical data...
Loading historical data...
Loading historical data...
Loading historical data...
Loading historical data...

Documentation

Showing up to 5 results
|